Wind_Speed
22 23 24 25 25 25 26 26 27 28 28 29 29 30 30 30 31 31 32 32 33 34 34 34 35 35 36 37 38 39 39 39 39 39 39 40 40 40 41 41 42 42 42 42 44 46 45 45 44 44 45 47 45 42 41 42 42 40 37 36 37 39 39
24 25 26 27 28 28 28 29 29 30 30 31 31 31 32 33 33 33 34 35 35 36 37 37 37 37 38 39 39 39 39 39 40 39 39 40 40 41 41 42 42 43 43 44 45 47 47 47 46 45 46 45 39 37 40 41 40 38 37 38 39 40 40
28 28 28 29 30 31 31 31 31 32 32 33 33 34 34 35 35 36 37 37 38 38 39 39 38 39 39 40 40 40 39 40 40 40 40 41 41 42 42 42 43 44 44 45 47 48 48 47 45 44 43 39 33 34 39 40 39 39 39 41 42 41 42
32 32 31 32 32 33 33 33 33 34 35 36 36 36 36 37 37 38 39 40 40 40 40 40 40 40 40 40 40 40 40 40 41 41 41 42 43 43 44 44 45 46 47 48 48 45 43 43 41 39 38 37 34 35 39 41 42 42 41 42 43 43 43
35 35 34 35 35 35 35 35 35 35 37 38 39 39 39 39 39 40 40 41 41 41 41 41 40 40 40 40 41 41 41 42 42 42 43 44 45 46 46 46 47 48 48 45 40 38 40 42 41 39 40 42 40 38 40 42 42 42 43 44 44 44 44
38 38 37 38 38 37 37 36 36 37 38 40 41 42 42 42 42 42 42 42 42 42 41 41 40 40 41 41 41 42 42 43 44 44 45 46 47 48 48 48 48 46 41 37 35 37 42 42 41 42 44 45 45 43 43 43 43 43 45 45 44 44 45
41 40 40 40 40 39 39 38 38 39 40 41 42 43 44 44 43 43 43 43 43 42 41 41 41 41 41 42 42 43 44 45 46 47 48 49 51 51 50 47 42 37 35 35 37 39 40 39 41 45 48 49 49 46 45 47 48 48 48 45 44 44 45
44 43 43 43 43 42 42 41 41 41 42 43 44 45 45 45 44 44 44 43 43 42 42 42 42 42 42 43 43 44 45 47 48 50 52 53 52 49 44 40 37 35 37 38 38 39 39 40 43 49 52 53 50 47 48 51 52 52 50 47 45 45 46
47 46 46 46 46 46 46 45 44 44 44 45 46 46 46 46 45 44 44 44 43 43 43 43 43 43 43 44 44 45 47 48 50 52 53 52 47 41 36 35 36 38 40 41 42 42 43 45 48 53 55 53 50 49 51 52 53 53 52 49 47 47 48
50 49 49 49 49 50 49 48 47 46 46 47 48 48 47 47 45 45 45 45 44 44 44 45 45 44 44 45 46 46 46 46 49 51 48 43 41 39 37 38 41 45 46 48 49 49 48 49 51 54 56 54 52 51 51 51 53 53 52 49 48 49 50
53 52 52 52 52 52 52 50 50 49 49 49 50 49 49 47 46 46 46 46 46 46 46 46 46 46 46 46 47 47 45 44 47 48 46 45 47 49 49 49 50 49 48 49 50 50 50 49 50 52 53 53 52 49 48 51 53 52 51 50 50 51 51
54 54 54 54 54 54 53 53 52 52 52 52 52 51 49 48 47 47 47 47 48 48 48 48 48 47 47 47 48 49 47 46 47 49 51 54 57 57 56 55 53 50 48 49 50 50 50 49 49 50 50 48 48 45 46 51 53 52 53 54 54 55 55
53 54 54 55 55 55 55 55 54 55 55 55 54 53 51 50 49 49 49 49 49 49 49 49 49 49 49 49 50 52 51 50 50 53 56 57 57 56 56 54 52 51 52 52 52 52 51 49 49 49 47 45 44 46 49 53 55 56 58 59 59 59 58
54 54 55 56 56 57 57 57 57 57 57 57 56 54 53 53 52 52 52 52 51 51 51 51 51 51 51 51 53 54 54 52 52 55 58 58 57 56 56 53 50 51 53 53 54 54 53 53 53 52 50 48 50 54 57 58 60 62 63 62 61 61 61
55 55 56 57 57 58 58 58 59 60 60 58 57 56 56 56 55 55 55 54 54 54 54 54 54 54 54 53 53 54 53 51 48 49 52 54 53 52 52 50 48 48 50 51 53 54 55 55 56 57 58 59 60 62 63 62 63 65 64 63 62 63 64
57 57 59 59 59 59 60 60 61 62 61 60 59 59 58 58 58 58 58 57 56 56 57 57 57 56 55 54 54 53 52 48 43 43 48 51 51 52 54 55 53 52 53 54 57 58 59 60 62 64 65 64 63 64 64 64 64 64 64 63 64 65 67
59 60 61 61 61 61 61 62 63 63 62 62 62 62 61 61 61 61 60 59 59 59 60 60 60 59 57 56 55 54 51 47 43 44 50 54 56 58 60 62 61 61 62 63 64 64 64 65 67 69 69 66 66 67 67 66 66 65 65 65 66 67 69
61 63 63 63 62 61 62 64 65 65 64 64 65 65 65 65 65 64 62 61 61 62 62 62 62 61 58 57 56 54 52 50 48 48 51 54 56 58 60 61 61 62 64 65 66 67 67 68 69 70 70 69 69 69 69 68 67 67 66 66 67 69 71
64 65 66 64 63 63 64 66 67 66 66 66 67 67 69 69 69 67 65 64 63 63 63 63 62 61 59 57 56 54 52 52 51 50 51 53 55 56 57 59 60 61 63 65 66 68 70 71 72 72 72 72 70 69 68 67 66 65 66 67 68 70 72
66 68 68 67 66 65 66 67 67 67 67 68 68 70 71 71 71 70 68 66 65 63 62 62 62 61 59 57 55 53 53 53 54 53 53 54 56 56 56 58 59 61 64 66 68 69 70 70 71 71 71 70 68 67 67 66 65 65 67 69 71 73 74
69 69 69 69 69 68 68 68 68 68 69 70 70 71 72 73 72 72 71 68 65 63 61 61 61 60 59 57 56 55 55 56 57 57 56 56 58 59 59 60 62 63 66 68 70 70 70 70 70 70 69 69 69 69 71 71 70 69 70 73 75 77 77
71 71 71 71 71 70 69 69 70 70 70 71 72 73 73 73 73 73 72 69 66 63 62 61 60 59 58 58 58 58 58 60 60 60 60 60 60 60 60 61 62 64 66 68 70 72 73 72 71 71 70 72 74 76 77 78 76 74 75 77 79 78 77
74 73 73 74 73 71 70 71 71 71 71 72 73 73 73 73 73 73 72 70 68 65 63 61 60 59 59 60 60 61 61 62 63 62 63 63 62 62 62 62 63 64 65 66 68 70 72 73 73 73 73 74 77 80 82 82 80 79 80 81 81 79 77
75 75 75 74 73 72 72 72 72 72 72 73 73 73 73 72 72 71 70 70 68 66 64 62 61 61 61 62 63 63 64 65 66 66 67 66 65 66 65 64 65 66 65 66 68 70 71 72 74 75 76 76 77 78 79 80 81 81 82 82 80 77 76
75 75 75 75 73 72 72 72 72 72 72 72 72 72 72 71 70 69 69 69 68 66 65 64 64 64 64 65 65 66 67 68 68 69 70 69 68 67 67 67 68 69 68 68 70 72 74 74 75 75 76 75 74 74 74 76 79 80 79 78 76 76 76
76 76 75 74 73 72 73 73 73 72 71 71 71 71 71 70 68 68 68 68 67 67 66 66 66 67 67 68 68 68 68 69 70 70 70 70 70 69 69 68 67 67 68 69 71 74 76 76 74 71 69 69 70 71 72 73 74 74 73 74 76 77 77
77 76 75 74 73 72 73 73 72 70 70 70 70 70 69 68 67 67 67 68 68 68 68 68 69 69 70 71 71 70 70 70 71 71 70 70 70 69 68 66 64 63 66 68 70 72 73 72 69 65 66 69 71 72 72 71 70 72 75 77 78 79 80
76 75 74 73 72 72 72 71 70 69 69 69 68 68 68 67 68 68 69 70 70 70 70 71 71 72 73 73 72 72 72 71 71 71 70 69 69 67 65 64 63 63 65 66 68 68 67 65 65 66 70 73 74 73 72 71 73 76 79 80 82 84 86
75 74 73 72 71 71 70 70 69 69 68 68 67 68 68 68 69 70 71 71 72 72 73 74 74 74 74 74 74 74 73 72 71 70 70 69 67 64 62 62 63 63 63 64 63 61 59 61 66 71 75 76 75 74 73 75 78 80 81 84 87 89 90
73 72 72 71 71 71 70 69 68 68 68 68 68 68 69 69 71 73 73 74 74 75 75 76 76 75 75 75 75 74 73 73 72 71 70 67 64 63 63 64 64 62 58 56 54 53 57 64 71 75 76 75 75 75 77 79 82 83 85 88 91 93 94
72 71 72 71 71 71 71 70 70 70 70 70 70 71 72 73 74 75 75 75 76 76 77 77 77 76 76 75 75 74 74 74 73 71 69 66 65 65 61 56 55 53 50 50 52 59 67 73 73 73 74 76 78 80 82 84 86 87 90 93 95 97 96
72 72 71 71 71 72 73 73 73 73 73 73 73 73 74 74 75 75 76 77 77 78 78 78 77 77 76 75 74 74 75 75 73 72 71 69 68 65 54 45 48 54 55 57 63 70 74 73 71 72 76 80 84 86 87 88 90 93 95 97 98 98 95
72 72 72 72 74 75 75 75 75 75 75 75 75 74 75 75 75 75 77 78 78 79 79 78 78 77 76 75 76 75 75 74 72 71 70 69 68 66 60 55 58 62 64 66 68 70 70 70 73 77 80 83 86 88 89 91 94 96 99 100 99 96 93
73 74 74 74 76 77 76 76 75 76 75 75 75 75 75 75 75 76 77 78 78 77 78 78 77 77 77 76 76 76 75 73 71 70 70 70 69 69 67 64 63 64 65 66 65 66 69 74 78 80 81 82 85 87 91 94 97 99 100 98 95 92 91
74 75 75 76 76 76 76 75 75 76 76 75 75 75 75 75 77 77 78 77 77 77 77 77 77 77 77 77 77 76 74 72 71 70 69 69 68 67 65 63 64 64 64 64 67 71 76 79 80 80 81 83 86 90 95 98 100 99 97 94 91 91 91
76 76 76 76 75 75 75 75 75 75 76 76 76 76 76 77 78 78 78 77 77 77 78 77 77 77 77 76 75 74 72 71 71 68 65 64 65 63 61 60 60 63 66 70 75 78 79 80 81 82 84 88 92 96 98 99 98 95 92 91 91 91 90
77 77 76 75 75 75 75 75 75 75 76 77 77 77 78 78 78 77 77 77 78 78 78 78 78 77 75 74 74 73 72 71 65 58 56 59 61 59 58 60 63 68 74 78 79 79 80 82 85 87 91 94 97 98 99 97 93 91 90 90 90 89 86
78 77 77 76 76 77 77 77 77 78 78 79 79 79 79 78 77 77 78 78 78 78 78 78 77 76 75 74 71 67 64 61 55 50 52 59 64 66 68 72 76 79 81 82 82 84 86 88 91 94 96 97 97 98 97 94 91 90 90 88 87 85 85
Wind_Direction
263 268 272 275 276 277 280 282 284 286 288 289 291 292 294 296 298 300 302 304 305 306 307 308 310 311 312 313 314 315 317 319 321 322 322 321 321 321 321 321 321 322 322 320 319 321 322 322 322 320 320 323 326 331 335 335 333 330 327 325 324 324 324
263 266 270 273 275 277 278 280 282 284 286 288 289 291 293 295 297 300 302 303 304 304 306 307 308 310 312 313 314 315 317 319 320 320 320 320 319 319 319 319 319 320 320 319 319 319 319 320 320 320 321 323 326 334 339 337 332 327 325 323 322 321 322
264 265 268 271 273 276 278 280 282 283 285 286 288 290 292 295 298 300 302 302 302 304 305 306 308 309 311 312 313 315 317 318 318 318 319 318 318 317 317 317 317 317 317 317 317 317 318 319 320 321 323 323 324 330 336 336 331 326 323 321 320 318 318
266 266 267 269 271 273 275 278 282 285 287 288 289 291 292 294 297 298 300 300 301 302 303 305 307 308 310 311 313 315 316 317 316 317 317 317 315 315 315 314 315 315 316 317 317 319 322 325 325 323 322 322 319 321 326 329 328 325 322 320 318 315 314
267 267 268 269 270 272 273 276 280 284 286 288 290 292 293 294 296 297 298 298 299 300 302 304 306 307 309 311 312 314 315 315 315 316 316 315 314 313 312 312 313 314 315 317 321 326 328 328 325 321 319 319 317 314 316 320 323 323 321 321 318 314 312
268 268 269 270 272 273 274 277 279 282 284 286 288 290 292 293 294 295 295 296 297 299 301 303 305 306 308 309 311 312 314 314 314 314 314 313 312 310 310 311 314 315 316 319 324 326 324 322 319 318 317 318 317 312 309 313 320 322 321 320 318 314 312
268 270 271 272 274 275 277 278 280 281 282 284 285 287 289 290 291 292 293 294 296 298 300 302 303 305 307 308 310 311 312 314 314 313 312 310 308 308 309 311 314 317 318 318 319 318 317 316 317 319 318 316 316 312 307 310 317 319 320 319 316 313 312
270 271 272 274 276 277 277 278 279 280 281 282 283 284 285 287 288 290 291 293 295 297 299 300 301 303 305 307 309 310 311 312 312 312 309 306 306 308 310 310 312 316 315 313 312 313 314 313 314 316 316 314 314 311 308 311 315 316 317 318 315 313 313
269 271 273 274 275 276 276 277 277 278 280 281 281 282 283 285 287 289 290 292 294 296 298 299 300 303 305 306 308 309 311 311 311 311 309 305 306 310 314 314 314 314 312 309 309 310 312 311 310 311 312 311 310 308 309 312 313 313 316 316 314 313 312
267 269 271 271 272 273 275 276 277 278 279 279 280 281 282 284 286 288 290 292 294 296 297 298 299 302 304 306 308 309 310 309 306 307 306 301 301 307 312 313 312 309 306 306 307 308 309 309 308 306 308 308 306 307 309 308 308 311 314 313 312 310 309
265 267 268 269 271 272 274 276 277 278 278 278 279 280 282 284 286 288 290 292 293 295 296 296 298 300 302 305 306 306 307 304 296 295 296 295 298 303 306 308 308 307 304 303 306 307 305 305 305 304 305 306 305 305 306 304 306 310 311 310 309 307 307
264 266 268 270 271 273 275 276 277 277 278 278 279 280 282 284 286 288 289 290 291 292 294 295 297 299 301 303 303 302 302 300 295 293 296 300 304 306 306 308 308 306 303 302 303 304 301 300 301 301 303 304 303 302 301 302 304 306 307 307 307 307 307
264 266 268 270 272 273 275 276 277 277 278 279 280 282 284 285 286 287 288 289 290 291 292 294 296 298 300 301 300 299 300 302 302 302 303 305 305 303 302 303 303 301 299 298 298 298 297 298 299 299 300 300 299 297 297 300 302 303 304 306 307 307 307
265 267 269 270 271 273 274 275 276 277 278 279 281 283 284 285 285 286 287 288 289 291 292 294 296 297 298 298 297 299 301 303 306 307 307 306 303 299 296 297 296 294 293 293 293 293 295 298 299 299 298 298 296 296 297 299 301 302 303 305 305 305 305
265 267 268 269 270 271 273 274 275 276 278 279 281 282 283 284 285 286 287 288 289 291 293 294 295 295 296 296 297 299 301 303 308 310 305 300 299 298 297 298 298 295 292 291 292 293 295 297 298 299 300 300 298 297 297 297 298 300 301 302 303 303 303
264 265 266 267 269 270 272 273 274 276 277 279 280 281 282 283 284 285 286 288 290 291 292 293 294 294 295 296 297 299 300 302 306 304 292 286 290 293 293 296 298 296 293 291 291 292 294 295 295 297 299 300 298 296 296 296 296 297 299 300 301 302 303
263 264 265 266 267 269 271 273 274 275 277 279 280 281 282 283 284 285 287 289 290 292 292 293 293 294 295 296 297 299 300 300 300 295 287 284 288 290 291 292 293 292 291 289 290 292 293 294 294 295 296 297 295 295 295 295 295 296 297 298 300 302 303
262 263 264 265 267 269 270 272 273 275 277 279 280 282 283 283 284 285 287 288 289 290 291 291 292 293 294 296 297 298 299 298 295 292 289 289 290 290 291 292 291 290 289 289 290 292 293 294 294 294 295 295 295 295 294 293 294 295 295 297 299 302 304
263 264 265 266 267 268 269 271 273 275 277 279 280 281 282 283 284 285 286 287 287 288 289 290 291 293 294 295 296 296 296 294 293 291 290 290 289 289 289 289 287 288 288 289 291 291 292 292 292 292 294 295 295 294 292 292 292 293 294 297 300 302 303
262 263 265 266 267 268 269 270 273 275 277 278 280 281 282 283 284 285 286 286 286 287 288 290 291 292 293 293 293 293 292 291 291 290 290 291 290 290 290 289 288 288 289 289 290 290 290 290 291 291 292 292 292 291 290 290 291 293 296 299 301 302 304
262 263 265 266 267 268 269 271 273 275 276 278 279 280 282 283 284 284 284 285 286 288 289 290 290 291 291 292 292 291 291 291 291 291 293 293 292 291 291 291 290 290 290 289 289 289 289 289 290 290 290 289 288 288 288 289 290 293 298 301 303 304 305
262 263 264 266 267 268 270 271 273 274 276 277 279 279 280 282 283 284 285 286 288 289 289 290 290 290 291 291 291 292 292 292 292 294 296 294 292 292 293 292 290 290 289 288 287 287 288 289 289 288 287 286 286 287 288 289 291 294 298 301 303 304 305
262 263 264 265 266 268 269 270 272 273 275 276 277 278 279 280 282 284 286 288 289 289 289 289 289 290 290 291 291 292 293 293 294 295 295 294 293 294 294 292 291 291 290 288 287 286 286 288 288 287 286 285 286 287 288 289 290 293 297 299 301 302 305
261 262 263 264 266 267 269 270 271 272 273 274 275 277 278 280 282 284 286 287 287 288 288 289 289 290 290 291 292 293 293 294 294 294 294 293 294 294 293 291 290 290 288 287 287 286 287 288 288 287 286 286 285 286 287 288 289 292 294 296 299 302 306
260 261 262 263 265 266 267 268 269 270 272 273 275 276 278 279 281 283 284 285 286 287 287 288 289 290 290 291 291 292 293 293 294 294 295 295 295 294 292 290 289 287 285 283 283 285 287 289 289 288 286 286 286 286 286 287 289 292 294 298 302 305 306
258 259 260 262 263 265 266 267 268 270 271 273 275 276 278 279 280 281 282 283 284 285 286 287 288 290 290 291 291 292 293 293 294 295 295 295 295 294 293 291 289 288 286 284 284 285 287 288 288 287 285 286 287 288 288 290 293 296 300 304 306 307 307
257 258 259 261 263 264 265 267 268 270 272 273 275 277 278 279 279 280 280 281 283 284 285 287 288 289 290 291 291 292 293 293 294 294 294 295 295 294 293 292 290 289 288 286 286 286 286 285 284 283 285 287 289 291 293 296 300 303 305 306 308 309 309
256 258 259 261 262 264 265 267 269 270 272 273 275 276 277 278 279 280 280 281 282 284 285 286 287 288 289 290 291 292 293 294 294 294 294 295 295 294 293 292 292 291 290 289 288 287 286 284 282 283 286 290 293 296 299 301 303 305 306 308 310 311 312
257 259 260 262 263 265 266 268 269 270 271 272 273 274 275 277 278 279 280 281 282 283 284 286 287 287 288 290 291 292 293 293 294 294 295 295 295 294 293 293 292 291 289 288 286 283 282 284 286 289 292 295 298 299 301 302 303 305 307 310 311 312 312
258 260 261 262 264 265 265 266 267 268 269 270 271 272 274 275 276 277 278 280 281 283 284 285 286 287 289 290 292 293 293 294 294 294 295 294 293 292 291 292 292 290 287 285 281 278 283 290 293 295 296 297 299 300 301 303 305 307 309 311 311 312 312
258 260 261 262 263 264 265 265 266 266 267 268 269 270 272 273 274 276 278 280 281 283 284 286 287 288 290 291 292 293 294 295 295 295 294 292 292 292 293 293 294 292 288 284 282 285 290 295 296 296 298 299 301 303 305 307 308 309 310 311 311 311 311
259 260 261 262 263 264 264 265 265 266 267 268 269 271 272 274 276 278 279 281 282 284 285 286 288 290 291 292 293 293 294 294 294 294 294 294 296 297 296 291 289 290 288 286 288 291 293 296 299 301 303 304 306 307 308 309 309 309 309 309 310 310 310
260 260 261 262 263 264 264 265 265 266 267 269 271 273 274 276 278 279 281 282 284 285 286 287 289 290 291 292 292 292 292 293 293 295 296 297 298 298 296 292 290 290 289 288 290 293 296 299 302 304 305 305 306 306 307 307 307 307 307 308 308 309 309
259 261 262 263 264 265 265 266 268 269 270 272 274 275 277 278 280 281 283 284 285 286 287 288 289 290 291 291 291 291 291 292 294 295 296 297 297 297 298 298 296 294 293 292 293 295 297 299 300 302 302 303 304 304 304 304 305 305 306 307 307 308 308
258 260 262 263 264 265 266 268 269 270 272 273 275 276 277 279 281 282 283 284 285 286 286 287 287 288 289 289 290 290 291 292 294 296 297 298 298 299 299 298 296 295 294 293 294 295 297 298 300 302 302 302 302 302 302 303 304 305 306 306 307 307 307
258 259 261 262 264 265 267 268 269 270 272 273 275 276 277 279 281 282 282 283 284 284 285 285 286 287 288 289 289 290 291 293 295 296 297 297 297 296 294 292 290 289 290 292 294 297 300 301 302 301 300 300 300 301 302 303 305 305 306 306 306 306 306
257 259 261 262 263 265 266 267 269 270 271 273 275 276 277 279 279 280 280 281 282 283 284 284 285 286 287 288 289 290 292 293 294 293 292 291 290 288 286 285 284 286 291 295 298 300 300 299 298 298 298 299 300 301 303 304 305 305 305 306 305 306 306
256 258 260 261 262 264 265 267 268 270 271 273 274 275 276 277 277 278 279 280 281 282 283 284 285 286 287 288 289 290 291 290 286 283 282 283 283 283 284 286 289 292 295 297 297 297 296 296 296 297 298 299 300 302 304 304 304 304 305 305 305 305 306
Height
10965 10965 10965 10965 10966 10967 10967 10967 10966 10966 10966 10965 10964 10964 10964 10964 10964 10964 10963 10962 10961 10960 10959 10958 10957 10956 10954 10953 10951 10950 10948 10946 10944 10943 10941 10939 10937 10935 10933 10931 10928 10926 10924 10921 10919 10916 10914 10912 10910 10907 10905 10903 10901 10899 10897 10895 10892 10890 10888 10886 10885 10883 10881
10963 10963 10963 10963 10963 10963 10964 10964 10964 10964 10963 10962 10962 10961 10961 10961 10960 10960 10959 10959 10958 10956 10955 10955 10954 10952 10951 10950 10948 10947 10945 10943 10941 10939 10938 10936 10934 10932 10930 10927 10924 10922 10920 10917 10915 10912 10910 10908 10905 10903 10901 10900 10898 10896 10894 10892 10889 10888 10885 10883 10881 10879 10877
10960 10960 10960 10960 10960 10960 10961 10961 10961 10961 10960 10959 10959 10958 10958 10957 10957 10956 10955 10955 10954 10953 10952 10951 10950 10949 10948 10946 10945 10943 10941 10939 10937 10936 10934 10932 10930 10928 10926 10923 10920 10918 10916 10914 10911 10908 10906 10904 10902 10900 10898 10896 10894 10892 10890 10888 10886 10884 10882 10880 10877 10875 10873
10956 10957 10957 10958 10958 10958 10958 10957 10957 10956 10955 10955 10954 10955 10955 10954 10954 10953 10952 10951 10949 10949 10948 10947 10946 10945 10944 10943 10941 10939 10937 10936 10934 10932 10930 10928 10926 10924 10921 10918 10916 10914 10912 10910 10907 10905 10902 10900 10898 10896 10894 10892 10890 10888 10886 10884 10882 10880 10878 10876 10873 10871 10868
10951 10952 10953 10954 10954 10955 10955 10955 10954 10953 10952 10950 10950 10950 10950 10950 10950 10949 10948 10947 10946 10945 10944 10943 10943 10941 10940 10939 10937 10935 10933 10931 10930 10927 10925 10923 10921 10919 10916 10914 10912 10910 10908 10905 10903 10901 10899 10897 10895 10892 10890 10888 10886 10884 10882 10879 10878 10876 10874 10871 10868 10866 10863
10946 10947 10948 10948 10949 10950 10950 10950 10950 10950 10949 10948 10946 10946 10945 10945 10945 10945 10944 10943 10942 10942 10941 10940 10939 10938 10936 10935 10933 10931 10929 10927 10925 10923 10921 10918 10915 10913 10911 10909 10907 10905 10902 10901 10899 10898 10896 10893 10891 10888 10886 10884 10882 10879 10876 10873 10872 10870 10868 10865 10863 10860 10858
10940 10941 10942 10942 10943 10944 10944 10944 10945 10945 10945 10944 10944 10942 10942 10941 10941 10941 10940 10940 10939 10938 10938 10937 10935 10934 10932 10931 10929 10927 10925 10923 10920 10917 10915 10912 10910 10908 10906 10903 10901 10899 10897 10896 10894 10893 10891 10889 10886 10883 10881 10879 10876 10873 10870 10867 10865 10863 10862 10859 10856 10854 10852
10934 10935 10936 10936 10937 10937 10938 10939 10940 10940 10940 10940 10940 10939 10938 10937 10937 10937 10937 10936 10935 10935 10934 10933 10931 10930 10929 10927 10926 10924 10921 10918 10914 10911 10908 10905 10904 10902 10900 10897 10895 10894 10892 10891 10889 10888 10886 10884 10881 10879 10876 10873 10871 10868 10865 10861 10858 10856 10855 10852 10850 10847 10845
10928 10929 10930 10931 10931 10931 10932 10933 10934 10935 10936 10936 10935 10934 10934 10933 10933 10933 10932 10932 10931 10931 10930 10928 10927 10926 10925 10923 10922 10920 10916 10912 10907 10904 10900 10898 10897 10896 10894 10891 10890 10888 10887 10885 10884 10883 10881 10879 10876 10873 10871 10868 10866 10863 10860 10856 10852 10850 10848 10845 10843 10840 10838
10923 10924 10925 10926 10926 10926 10927 10928 10929 10930 10931 10930 10930 10929 10929 10929 10929 10929 10928 10927 10927 10926 10925 10923 10922 10922 10921 10920 10918 10916 10914 10909 10901 10896 10893 10890 10890 10890 10889 10888 10886 10884 10882 10880 10878 10876 10875 10873 10870 10867 10865 10862 10860 10858 10855 10850 10847 10844 10842 10839 10837 10834 10832
10918 10920 10920 10920 10921 10921 10922 10923 10923 10924 10925 10925 10924 10924 10925 10925 10925 10924 10924 10923 10922 10921 10920 10919 10918 10918 10917 10917 10914 10912 10911 10906 10897 10891 10887 10885 10885 10885 10885 10884 10883 10880 10878 10875 10873 10871 10869 10867 10864 10861 10859 10856 10853 10851 10848 10844 10841 10839 10836 10834 10831 10829 10827
10914 10915 10915 10915 10915 10915 10916 10917 10917 10918 10918 10918 10918 10919 10920 10921 10920 10920 10919 10918 10917 10916 10916 10915 10914 10914 10914 10913 10910 10906 10904 10901 10894 10889 10886 10884 10882 10880 10879 10878 10877 10876 10873 10869 10867 10865 10862 10861 10859 10856 10853 10850 10847 10844 10841 10838 10835 10833 10830 10828 10826 10823 10821
10910 10910 10910 10910 10909 10910 10910 10910 10910 10910 10910 10911 10912 10913 10914 10915 10914 10914 10913 10913 10912 10912 10911 10911 10910 10910 10910 10909 10905 10901 10898 10896 10893 10889 10885 10883 10879 10874 10871 10871 10870 10869 10867 10864 10862 10859 10856 10855 10853 10850 10847 10844 10840 10837 10834 10831 10829 10826 10824 10822 10819 10816 10813
10906 10906 10906 10905 10904 10904 10904 10903 10903 10903 10903 10904 10905 10906 10907 10907 10907 10907 10907 10907 10907 10907 10906 10906 10906 10906 10905 10903 10899 10896 10894 10893 10891 10887 10880 10877 10873 10867 10864 10863 10863 10862 10860 10858 10856 10853 10852 10850 10847 10844 10842 10839 10835 10831 10828 10826 10823 10819 10817 10815 10812 10809 10806
10900 10901 10900 10899 10898 10898 10898 10897 10896 10895 10896 10897 10899 10900 10900 10900 10900 10900 10900 10901 10901 10901 10901 10900 10900 10899 10898 10896 10894 10892 10890 10888 10889 10888 10879 10869 10864 10860 10857 10856 10856 10855 10854 10852 10851 10849 10847 10845 10842 10839 10837 10833 10829 10825 10822 10820 10817 10813 10810 10808 10805 10802 10799
10894 10894 10892 10892 10892 10892 10891 10891 10889 10889 10890 10891 10892 10893 10894 10894 10893 10893 10893 10894 10895 10895 10894 10893 10892 10891 10891 10889 10887 10886 10885 10884 10887 10887 10877 10865 10860 10857 10854 10852 10852 10851 10849 10846 10845 10843 10842 10839 10836 10833 10831 10827 10822 10818 10816 10813 10810 10807 10803 10801 10798 10795 10792
10886 10886 10884 10885 10885 10885 10885 10883 10882 10882 10884 10885 10885 10885 10886 10887 10887 10886 10887 10888 10888 10887 10886 10885 10883 10883 10883 10882 10880 10879 10879 10879 10880 10877 10868 10860 10857 10854 10849 10847 10846 10844 10842 10839 10837 10836 10834 10832 10829 10826 10824 10820 10815 10811 10809 10807 10804 10801 10797 10794 10791 10788 10784
10879 10877 10876 10878 10879 10879 10879 10876 10875 10876 10878 10879 10878 10877 10877 10877 10878 10879 10881 10882 10882 10881 10879 10877 10876 10875 10875 10875 10873 10872 10872 10871 10870 10866 10861 10856 10852 10848 10844 10842 10840 10837 10834 10832 10830 10828 10826 10824 10821 10818 10816 10813 10809 10805 10802 10800 10798 10795 10791 10788 10785 10781 10777
10871 10869 10868 10870 10871 10872 10872 10870 10869 10871 10872 10872 10872 10871 10869 10868 10869 10872 10874 10875 10875 10874 10872 10870 10868 10868 10868 10867 10867 10866 10865 10863 10860 10857 10854 10850 10846 10843 10840 10836 10833 10831 10828 10825 10823 10821 10818 10816 10814 10811 10808 10805 10802 10799 10795 10793 10791 10789 10786 10782 10779 10775 10771
10862 10861 10861 10862 10864 10865 10865 10864 10865 10866 10866 10866 10866 10864 10862 10861 10861 10863 10865 10865 10866 10867 10866 10864 10862 10861 10861 10861 10861 10860 10858 10855 10852 10848 10845 10843 10840 10837 10834 10830 10828 10826 10823 10819 10817 10814 10812 10809 10806 10804 10801 10799 10796 10792 10788 10786 10784 10783 10779 10775 10772 10768 10764
10854 10853 10854 10855 10856 10857 10859 10859 10860 10860 10860 10860 10859 10857 10854 10854 10853 10853 10854 10856 10858 10860 10859 10858 10856 10855 10854 10854 10853 10852 10850 10847 10843 10840 10838 10836 10834 10830 10828 10825 10822 10820 10817 10813 10809 10807 10804 10802 10799 10797 10794 10792 10789 10786 10781 10778 10777 10775 10772 10768 10764 10760 10755
10846 10846 10847 10847 10848 10851 10853 10853 10853 10853 10853 10852 10851 10849 10847 10847 10846 10845 10846 10848 10850 10852 10852 10851 10849 10848 10848 10847 10845 10844 10842 10838 10835 10833 10830 10827 10825 10824 10822 10819 10815 10813 10810 10805 10802 10799 10796 10794 10792 10789 10787 10784 10782 10778 10774 10770 10768 10767 10763 10759 10756 10752 10747
10837 10839 10840 10839 10841 10845 10846 10845 10845 10846 10846 10845 10843 10841 10840 10840 10840 10839 10839 10840 10841 10842 10842 10842 10841 10840 10840 10839 10837 10836 10834 10830 10827 10826 10822 10818 10818 10817 10815 10811 10807 10805 10802 10797 10793 10791 10789 10786 10784 10781 10779 10776 10773 10770 10767 10763 10760 10759 10755 10751 10748 10744 10740
10829 10830 10830 10831 10834 10837 10837 10837 10837 10838 10838 10837 10835 10835 10835 10835 10834 10833 10833 10832 10832 10833 10833 10833 10833 10832 10832 10831 10829 10828 10826 10822 10820 10818 10814 10812 10812 10810 10807 10804 10800 10797 10794 10790 10786 10784 10782 10779 10776 10773 10770 10768 10765 10763 10760 10756 10753 10750 10747 10743 10740 10736 10732
10820 10821 10822 10823 10827 10829 10829 10829 10830 10830 10831 10831 10830 10829 10829 10829 10829 10828 10827 10825 10825 10825 10824 10824 10824 10824 10823 10822 10821 10820 10818 10815 10813 10810 10807 10805 10804 10802 10800 10798 10795 10791 10787 10783 10780 10777 10775 10772 10768 10765 10762 10759 10757 10756 10754 10750 10745 10742 10739 10735 10731 10727 10723
10811 10813 10814 10817 10820 10821 10821 10821 10822 10823 10824 10824 10824 10823 10822 10823 10823 10822 10820 10819 10817 10817 10816 10816 10816 10816 10815 10814 10813 10813 10811 10808 10805 10802 10800 10797 10795 10794 10792 10789 10787 10784 10780 10777 10774 10770 10767 10764 10760 10757 10754 10752 10750 10748 10746 10743 10738 10733 10730 10726 10722 10718 10713
10803 10806 10808 10811 10813 10814 10814 10814 10816 10818 10817 10817 10817 10816 10816 10816 10815 10814 10813 10811 10810 10810 10809 10809 10809 10808 10806 10805 10804 10804 10802 10801 10798 10795 10793 10791 10788 10785 10783 10780 10779 10776 10772 10768 10766 10762 10757 10754 10751 10749 10746 10744 10742 10739 10736 10733 10728 10724 10720 10716 10711 10706 10702
10797 10800 10803 10805 10807 10808 10808 10808 10810 10811 10810 10811 10810 10809 10808 10807 10807 10806 10804 10803 10803 10803 10802 10802 10801 10800 10798 10797 10796 10795 10793 10792 10790 10787 10785 10784 10781 10778 10775 10772 10769 10767 10762 10759 10756 10752 10748 10745 10742 10741 10738 10735 10732 10729 10725 10722 10719 10715 10710 10705 10700 10694 10690
10792 10795 10797 10799 10800 10801 10802 10802 10803 10803 10802 10803 10802 10801 10800 10800 10799 10797 10796 10796 10796 10796 10795 10794 10794 10792 10791 10789 10787 10786 10784 10783 10781 10779 10777 10776 10773 10770 10767 10764 10760 10757 10753 10749 10745 10742 10740 10737 10734 10731 10728 10724 10721 10718 10715 10712 10709 10706 10701 10695 10689 10684 10680
10787 10789 10791 10792 10793 10794 10794 10795 10795 10794 10793 10793 10793 10793 10793 10792 10790 10789 10788 10788 10788 10787 10786 10785 10785 10784 10783 10781 10779 10776 10774 10772 10772 10770 10768 10767 10765 10763 10760 10755 10751 10748 10744 10739 10736 10734 10732 10730 10727 10722 10718 10715 10712 10709 10706 10702 10698 10695 10690 10684 10678 10673 10668
10781 10782 10783 10783 10784 10784 10784 10785 10785 10785 10785 10785 10785 10785 10785 10784 10782 10782 10781 10781 10780 10779 10778 10777 10776 10775 10774 10772 10770 10767 10763 10761 10761 10759 10758 10757 10757 10755 10752 10747 10742 10740 10737 10733 10729 10726 10724 10721 10718 10714 10709 10705 10701 10698 10694 10689 10685 10682 10678 10674 10668 10662 10657
10772 10773 10774 10774 10774 10774 10774 10775 10776 10776 10776 10777 10777 10777 10776 10776 10775 10775 10773 10772 10771 10770 10768 10767 10767 10766 10765 10763 10760 10757 10754 10752 10750 10748 10746 10745 10745 10746 10745 10741 10736 10732 10730 10726 10721 10717 10714 10711 10708 10704 10699 10694 10689 10684 10681 10677 10674 10670 10667 10663 10658 10652 10646
10762 10763 10764 10765 10764 10763 10764 10766 10767 10767 10768 10768 10768 10768 10768 10768 10767 10766 10764 10763 10762 10761 10759 10758 10757 10756 10755 10753 10750 10748 10746 10743 10740 10738 10735 10733 10733 10735 10735 10734 10730 10725 10720 10717 10713 10709 10705 10702 10699 10695 10691 10686 10680 10675 10671 10668 10664 10661 10657 10653 10649 10642 10636
10753 10754 10755 10756 10755 10754 10755 10757 10758 10758 10759 10760 10760 10759 10759 10758 10758 10757 10756 10754 10753 10752 10750 10749 10747 10746 10745 10743 10741 10739 10736 10734 10731 10728 10726 10724 10723 10723 10722 10722 10720 10716 10711 10708 10705 10701 10698 10694 10691 10688 10684 10679 10674 10669 10664 10659 10656 10652 10647 10643 10639 10633 10627
10746 10746 10746 10746 10745 10746 10747 10748 10749 10749 10750 10751 10751 10750 10750 10749 10748 10748 10747 10746 10744 10743 10741 10740 10738 10737 10735 10734 10731 10728 10726 10724 10722 10720 10717 10714 10712 10711 10711 10710 10707 10704 10701 10698 10695 10692 10688 10684 10681 10678 10675 10671 10667 10661 10656 10651 10646 10642 10637 10633 10628 10623 10617
10738 10737 10737 10737 10736 10737 10738 10739 10740 10741 10741 10742 10742 10741 10741 10740 10739 10738 10738 10737 10735 10733 10731 10730 10729 10728 10726 10724 10722 10719 10716 10715 10713 10711 10708 10706 10703 10701 10700 10699 10696 10693 10690 10688 10685 10682 10678 10675 10671 10668 10665 10662 10657 10652 10646 10641 10636 10631 10627 10622 10617 10612 10608
10729 10729 10729 10729 10728 10728 10729 10730 10731 10732 10733 10733 10733 10733 10732 10732 10731 10729 10728 10727 10725 10723 10722 10720 10720 10719 10717 10714 10712 10710 10708 10706 10705 10703 10700 10697 10694 10692 10691 10689 10687 10684 10681 10678 10675 10672 10670 10667 10663 10659 10656 10651 10646 10641 10636 10631 10625 10621 10616 10612 10607 10602 10599
10720 10720 10721 10721 10720 10720 10721 10722 10723 10724 10724 10724 10724 10724 10723 10723 10722 10720 10719 10717 10715 10713 10711 10709 10709 10709 10707 10705 10704 10702 10699 10698 10698 10697 10693 10688 10684 10682 10681 10679 10677 10674 10671 10668 10665 10663 10660 10656 10652 10648 10644 10640 10635 10630 10626 10620 10615 10611 10607 10601 10597 10593 10589